Chippewa, MI

10:34 AM EDT on October 20, 2019 (GMT -0400)
Chippewa County International

Weather History for KCIU - August, 2019

Change the Weather History Date:

Saturday, August 10, 2019

  Actual Average Record
Temperature  
Mean Temperature 64 °F -  
Max Temperature 77 °F 74 °F 82 °F (2007)
Min Temperature 51 °F 52 °F 42 °F (1978)
Degree Days  
Heating Degree Days 1    
Growing Degree Days 14 (Base 50)    
Moisture  
Dew Point 51 °F    
Average Humidity 67    
Maximum Humidity 92    
Minimum Humidity 38    
Precipitation  
Precipitation 0.00 in - - ()
Sea Level Pressure  
Sea Level Pressure 29.96 in    
Wind  
Wind Speed 7 mph (WNW)    
Max Wind Speed 17 mph    
Max Gust Speed 24 mph    
Visibility 10 miles    
Events      
Averages and records for this station are not official NWS values.
T = Trace of Precipitation, MM = Missing Value Source: NWS Daily Summary

Daily Weather History Graph

Daily Weather History Graph

Search for Another Location

Airport or City:

Astronomy

Aug. 10, 2019 Rise Set
Actual Time 6:30 AM EDT 8:55 PM EDT
Civil Twilight 5:56 AM EDT 9:28 PM EDT
Nautical Twilight 5:14 AM EDT 10:10 PM EDT
Astronomical Twilight 4:26 AM EDT 10:57 PM EDT
Moon 5:43 PM EDT (8/10) 2:01 AM EDT (8/10)
Length of Visible Light 15h 32m
Length of Day
14h 25m
Waxing Gibbous, 79% of the Moon is Illuminated
Aug 10
Waxing Gibbous
Aug 15
Full
Aug 23
Last Quarter
Aug 30
New
Sep 5
First Quarter

Hourly Weather History & Observations

Time (EDT) Temp. Dew Point Humidity Pressure Visibility Wind Dir Wind Speed Gust Speed Precip Events Conditions
12:56 AM 55.0 °F 50.0 °F 83% 29.94 in 10.0 mi WNW 8.1 mph - N/A   Clear
1:56 AM 54.0 °F 50.0 °F 86% 29.93 in 10.0 mi WNW 4.6 mph - N/A   Clear
2:56 AM 52.0 °F 48.9 °F 89% 29.92 in 10.0 mi WSW 4.6 mph - N/A   Clear
3:56 AM 52.0 °F 48.9 °F 89% 29.93 in 10.0 mi WSW 5.8 mph - N/A   Clear
4:56 AM 52.0 °F 48.9 °F 89% 29.94 in 10.0 mi Calm Calm - N/A   Mostly Cloudy
5:56 AM 51.1 °F 48.9 °F 92% 29.94 in 10.0 mi West 5.8 mph - N/A   Partly Cloudy
6:56 AM 51.1 °F 48.9 °F 92% 29.96 in 10.0 mi WNW 4.6 mph - N/A   Clear
7:56 AM 55.0 °F 51.1 °F 86% 29.97 in 10.0 mi West 4.6 mph - N/A   Clear
8:56 AM 60.1 °F 53.1 °F 78% 29.98 in 10.0 mi West 4.6 mph - N/A   Clear
9:56 AM 66.9 °F 54.0 °F 63% 29.98 in 10.0 mi NW 4.6 mph - N/A   Clear
10:56 AM 70.0 °F 54.0 °F 57% 29.98 in 10.0 mi West 6.9 mph - N/A   Clear
11:56 AM 72.0 °F 50.0 °F 46% 29.98 in 10.0 mi NNW 11.5 mph - N/A   Scattered Clouds
12:56 PM 73.9 °F 51.1 °F 45% 29.97 in 10.0 mi West 11.5 mph - N/A   Overcast
1:56 PM 75.0 °F 48.0 °F 38% 29.96 in 10.0 mi NW 11.5 mph 24.2 mph N/A   Mostly Cloudy
2:56 PM 75.9 °F 48.9 °F 38% 29.96 in 10.0 mi NNW 17.3 mph 21.9 mph N/A   Overcast
3:56 PM 77.0 °F 51.1 °F 40% 29.95 in 10.0 mi NW 15.0 mph 21.9 mph N/A   Mostly Cloudy
4:56 PM 75.9 °F 52.0 °F 43% 29.95 in 10.0 mi North 13.8 mph - N/A   Scattered Clouds
5:56 PM 75.0 °F 52.0 °F 44% 29.96 in 10.0 mi NNW 12.7 mph 19.6 mph N/A   Clear
6:56 PM 73.0 °F 53.1 °F 49% 29.96 in 10.0 mi NNW 12.7 mph - N/A   Clear
7:56 PM 71.1 °F 54.0 °F 55% 29.96 in 10.0 mi North 6.9 mph - N/A   Clear
8:56 PM 66.9 °F 55.9 °F 68% 29.96 in 10.0 mi North 4.6 mph - N/A   Clear
9:56 PM 62.1 °F 54.0 °F 75% 29.97 in 10.0 mi Calm Calm - N/A   Clear
10:56 PM 62.1 °F 54.0 °F 75% 29.98 in 10.0 mi Calm Calm - N/A   Clear
11:56 PM 62.1 °F 55.0 °F 78% 29.98 in 10.0 mi SW 4.6 mph - N/A   Clear